Wind_Speed
6 5 5 5 5 6 6 7 7 7 6 5 5 5 5 5 6 6 6 6 6 6 5 4 4 3 3 3 2 2 2 2 3 3 3 3 3 4 4 5 5 6 6
7 7 7 7 7 7 7 8 8 8 7 7 7 6 6 6 7 7 7 7 7 6 6 6 5 5 4 3 3 2 2 2 2 2 2 2 3 4 4 5 5 5 5
9 8 8 8 8 8 9 9 10 9 8 8 8 8 8 8 8 8 8 7 7 7 7 7 7 6 5 4 4 3 2 2 1 2 2 2 3 3 3 4 4 4 4
11 10 10 9 9 9 10 10 11 10 10 10 10 9 9 9 9 8 8 8 8 8 8 8 8 7 6 5 5 4 3 2 2 1 2 2 2 2 2 3 3 3 3
13 11 11 10 10 11 11 11 12 12 11 11 11 10 10 10 9 9 9 9 9 9 9 9 9 8 7 7 6 5 4 3 3 2 1 1 1 1 1 1 1 2 2
14 13 12 12 12 12 12 13 13 13 12 12 12 12 11 11 11 11 11 11 11 10 10 10 10 9 8 8 7 6 5 4 4 3 3 2 1 1 1 0 1 1 2
17 15 14 14 14 14 14 14 14 14 14 13 13 13 13 13 13 13 13 12 12 12 12 11 11 10 9 9 8 7 6 6 5 5 4 4 3 3 2 2 1 1 0
18 17 16 15 15 15 15 15 15 15 15 15 15 15 14 14 14 14 14 14 13 13 13 13 12 11 10 10 9 8 8 7 7 6 6 5 5 4 4 3 3 2 2
19 19 18 16 15 15 15 16 16 16 16 16 16 16 16 15 15 15 15 15 15 15 15 14 14 13 13 12 11 10 9 8 8 8 8 7 7 6 6 5 5 4 4
17 18 19 18 16 15 15 15 16 16 17 17 17 17 17 17 17 16 16 16 16 16 16 15 16 15 15 14 13 12 11 10 10 10 9 9 8 8 8 7 6 6 6
17 18 18 18 17 16 16 16 16 17 17 17 18 18 18 17 17 17 17 17 17 17 17 17 17 17 17 17 15 14 13 12 11 11 10 11 10 10 9 9 8 8 7
19 19 17 17 17 16 16 16 17 17 17 18 19 19 18 18 17 18 18 19 19 18 18 19 19 19 19 18 17 16 14 14 13 12 12 12 12 12 12 11 10 10 9
22 21 19 17 17 17 16 17 17 17 18 19 19 19 19 19 18 19 19 19 19 19 19 19 20 20 19 19 18 18 17 15 15 14 14 13 14 13 13 13 13 12 11
22 21 19 17 18 18 17 17 18 18 18 18 19 19 19 19 19 19 20 20 19 19 20 20 19 20 20 20 19 18 18 17 16 16 16 16 16 15 14 14 14 14 14
22 20 17 18 19 18 17 17 17 18 18 18 19 19 20 20 20 20 20 20 20 20 21 21 20 20 19 20 20 19 19 19 19 19 18 17 18 17 16 16 16 16 15
21 18 16 16 17 18 18 18 18 18 18 19 19 19 20 21 21 21 21 21 22 22 21 21 21 21 21 20 20 20 20 20 21 21 20 19 19 18 18 18 18 18 17
21 18 15 15 16 17 17 18 18 18 19 20 20 20 21 22 21 21 21 21 21 22 22 23 22 22 22 21 21 20 21 22 22 21 21 21 20 19 20 20 20 19 19
18 14 15 14 17 17 17 17 18 18 19 20 21 21 22 22 21 22 22 21 22 23 23 23 23 22 22 22 21 21 22 22 23 22 22 21 21 21 21 21 21 21 20
16 14 13 13 14 16 16 17 19 18 19 21 22 23 23 24 23 23 23 22 23 23 24 24 23 24 23 23 22 22 22 23 23 22 21 21 22 22 21 22 22 22 22
17 15 13 13 14 14 15 15 17 19 21 23 23 24 24 24 24 23 22 22 23 24 24 25 24 24 24 24 24 23 23 23 23 23 23 22 23 23 22 22 23 23 23
14 14 12 13 14 15 16 16 18 21 22 23 23 24 24 24 24 24 23 23 24 25 26 26 26 25 25 25 26 25 24 24 24 24 25 25 24 24 23 24 24 24 24
15 14 13 14 15 16 18 19 21 22 23 24 24 24 24 24 24 24 24 24 25 26 27 27 27 27 27 27 27 27 27 26 25 26 25 26 26 25 24 24 25 25 26
16 15 16 16 17 18 19 21 22 22 23 25 24 25 25 25 25 25 25 26 26 27 28 28 28 28 28 28 29 29 29 28 28 27 27 27 26 26 26 25 25 26 26
17 17 18 18 19 19 20 21 23 23 24 25 25 25 25 26 26 26 26 27 27 28 29 29 29 29 29 29 30 30 30 30 29 28 29 29 28 28 28 28 28 27 27
18 18 19 19 20 21 22 23 24 24 25 25 25 25 26 27 27 27 27 28 28 29 29 30 30 30 29 29 30 31 31 31 30 29 29 28 28 28 28 28 29 28 29
18 19 20 21 21 22 23 24 25 25 26 26 26 26 26 27 27 28 28 28 28 29 29 29 29 30 30 30 30 30 30 30 30 29 29 29 28 28 28 29 28 28 29
Wind_Direction
262 257 243 230 222 217 213 212 211 215 218 226 242 260 274 282 288 291 293 297 301 303 307 315 314 313 313 323 348 27 44 54 67 84 97 94 84 79 79 80 83 85 84
260 250 243 233 225 222 221 221 222 225 227 233 242 254 269 279 285 288 291 293 297 300 301 305 306 307 307 315 330 354 20 41 60 79 91 83 73 72 74 76 78 79 80
257 250 243 236 230 229 229 229 230 233 235 239 243 253 264 272 278 283 287 287 292 298 300 301 300 301 303 309 317 327 349 11 28 48 60 63 62 66 69 73 76 75 78
257 250 245 240 235 234 235 234 233 237 240 242 245 253 259 265 270 276 281 283 288 292 295 296 294 295 300 304 308 314 324 333 340 6 22 37 51 57 62 72 76 76 82
252 247 244 242 239 238 239 238 235 237 241 244 247 251 254 260 264 268 273 277 282 285 287 290 291 290 295 299 300 302 311 314 312 312 318 343 25 47 60 77 78 79 84
247 243 241 242 240 241 242 240 238 238 240 243 247 249 251 255 260 265 269 272 276 280 282 283 285 287 290 294 295 294 296 299 297 292 281 268 260 241 234 217 115 91 83
247 244 243 243 241 241 241 242 241 240 241 244 246 248 251 255 260 263 266 269 273 276 277 278 280 283 284 287 290 288 284 284 282 276 269 261 256 246 242 241 224 202 121
243 241 240 242 243 243 242 242 243 244 245 247 248 249 251 256 261 263 263 266 269 270 272 273 275 277 279 280 281 280 278 278 276 269 263 259 256 250 249 247 242 236 230
242 238 237 238 241 243 243 243 243 245 247 249 250 251 253 257 260 262 263 264 266 268 269 270 271 272 274 274 274 273 273 271 268 267 263 259 255 253 254 252 252 248 248
240 237 235 235 237 240 241 243 245 246 248 249 251 252 254 257 259 262 263 265 266 267 267 268 269 270 271 270 270 270 268 266 263 264 263 260 257 255 256 255 256 253 251
238 237 237 232 234 236 240 243 245 247 248 249 252 253 256 258 260 262 263 265 266 267 267 267 268 269 268 267 267 267 265 264 262 262 263 260 255 255 255 255 256 255 254
238 236 240 237 235 235 238 241 244 246 247 250 253 254 256 258 260 263 264 265 267 267 267 267 266 266 265 265 265 265 265 264 263 260 262 257 255 256 256 256 255 257 256
240 234 234 232 229 232 236 240 243 245 248 252 255 257 258 259 260 263 265 266 268 269 268 268 266 266 265 264 265 264 263 262 261 261 263 260 258 258 258 256 256 256 258
243 231 228 228 227 230 233 239 244 247 250 253 256 257 256 256 258 262 265 266 268 268 268 267 266 268 266 263 262 262 262 261 260 260 261 261 261 258 257 255 257 258 259
253 240 232 238 237 232 232 238 244 245 249 252 254 256 255 256 261 263 266 267 268 267 267 269 268 268 268 266 262 261 260 261 260 260 261 261 259 259 255 256 258 260 261
263 252 245 237 232 230 229 232 238 244 249 252 253 257 259 259 263 263 265 266 265 265 266 267 267 269 268 267 263 259 259 260 259 261 259 259 259 258 258 258 258 258 260
272 263 254 251 234 229 232 234 238 242 248 253 257 261 261 259 262 262 265 265 264 264 263 267 267 267 266 262 261 261 259 258 259 260 260 260 258 259 260 261 258 256 258
275 262 256 256 237 233 239 244 246 248 253 258 261 263 265 264 262 262 264 264 265 262 263 267 266 265 266 262 260 261 260 260 258 260 260 258 258 258 260 260 260 258 259
278 273 267 268 258 252 253 254 252 258 261 262 263 264 265 265 267 264 266 265 264 263 263 263 264 266 267 265 262 262 262 262 261 260 259 258 257 257 259 259 259 259 260
282 277 275 276 277 268 264 266 266 266 266 267 267 268 270 268 267 265 265 264 265 265 264 265 266 267 267 267 264 263 263 263 261 259 259 260 260 260 260 259 259 260 262
283 277 276 283 283 282 278 274 272 271 271 271 270 269 271 271 269 268 266 264 264 265 265 265 265 266 265 265 266 264 264 264 264 262 259 258 259 261 260 258 258 260 262
286 285 281 282 283 283 282 276 274 273 273 274 274 273 273 272 270 270 269 267 265 265 265 264 264 263 262 264 264 262 262 264 264 262 260 259 259 259 259 258 258 259 261
289 286 284 285 284 283 283 280 277 276 275 276 276 275 275 274 273 273 271 270 267 265 264 263 264 264 263 263 264 263 262 264 263 261 260 258 257 257 257 258 259 260 261
287 287 287 286 285 284 283 281 278 276 275 276 276 277 276 274 273 273 272 271 268 265 264 264 264 265 263 262 263 262 262 263 262 261 260 259 257 257 258 261 261 261 262
285 286 285 285 286 285 284 283 281 278 276 275 276 276 276 276 274 274 273 273 270 267 266 265 264 265 263 262 263 263 263 262 262 261 259 257 256 258 260 260 260 261 260
285 285 285 285 286 287 286 285 282 278 276 275 275 275 275 275 275 274 272 272 271 268 267 266 265 265 264 263 264 264 262 263 261 260 258 257 255 256 259 258 258 261 260
Height
5905 5904 5904 5905 5905 5906 5906 5907 5907 5908 5908 5909 5909 5909 5909 5909 5909 5909 5909 5908 5907 5907 5906 5905 5904 5903 5902 5902 5901 5900 5899 5898 5898 5897 5896 5895 5894 5893 5892 5892 5891 5891 5890
5904 5904 5904 5904 5905 5905 5906 5906 5907 5907 5908 5908 5908 5909 5909 5909 5909 5908 5908 5908 5907 5906 5906 5905 5904 5903 5903 5902 5901 5900 5899 5899 5898 5897 5896 5895 5894 5893 5893 5892 5891 5891 5890
5903 5903 5903 5903 5904 5904 5905 5905 5906 5907 5907 5907 5908 5908 5908 5908 5908 5908 5907 5907 5907 5906 5905 5905 5904 5903 5903 5902 5901 5900 5899 5899 5898 5897 5896 5895 5895 5894 5893 5893 5892 5891 5891
5902 5902 5902 5902 5903 5903 5904 5904 5905 5906 5906 5906 5906 5906 5907 5907 5907 5907 5907 5906 5906 5905 5905 5904 5903 5903 5902 5902 5901 5900 5899 5898 5898 5897 5896 5896 5895 5894 5894 5893 5893 5892 5892
5900 5900 5901 5901 5901 5902 5902 5903 5904 5904 5905 5905 5905 5905 5905 5905 5906 5906 5906 5905 5905 5904 5904 5903 5902 5902 5901 5901 5901 5900 5899 5898 5898 5897 5896 5896 5895 5895 5894 5894 5893 5893 5892
5897 5898 5898 5899 5899 5900 5901 5901 5902 5902 5903 5903 5903 5904 5904 5904 5904 5904 5904 5904 5904 5903 5903 5902 5901 5901 5901 5900 5900 5900 5899 5898 5897 5897 5896 5896 5895 5895 5895 5894 5894 5893 5893
5894 5895 5895 5896 5897 5898 5899 5899 5900 5900 5901 5901 5902 5902 5902 5902 5903 5903 5903 5903 5902 5902 5902 5901 5900 5900 5900 5899 5899 5899 5899 5898 5897 5897 5896 5896 5895 5895 5895 5894 5894 5893 5893
5890 5891 5892 5894 5895 5895 5896 5897 5898 5898 5899 5900 5900 5900 5900 5901 5901 5901 5901 5901 5901 5900 5900 5899 5899 5898 5898 5898 5898 5897 5897 5897 5896 5896 5896 5895 5895 5895 5895 5894 5894 5893 5893
5886 5888 5889 5890 5892 5893 5893 5894 5895 5896 5896 5897 5897 5898 5898 5898 5898 5898 5898 5898 5898 5898 5898 5897 5897 5896 5896 5896 5896 5895 5895 5895 5895 5895 5895 5894 5894 5894 5894 5894 5893 5893 5893
5883 5884 5885 5887 5888 5890 5890 5891 5892 5893 5893 5894 5894 5895 5895 5895 5895 5895 5895 5895 5895 5895 5895 5895 5894 5894 5894 5893 5893 5893 5893 5893 5893 5893 5893 5893 5893 5893 5893 5893 5892 5892 5892
5879 5881 5882 5883 5884 5886 5887 5888 5889 5889 5890 5890 5891 5891 5891 5892 5892 5892 5892 5892 5892 5892 5892 5892 5891 5891 5891 5890 5890 5891 5891 5891 5890 5890 5890 5890 5891 5891 5891 5891 5891 5891 5891
5875 5876 5877 5879 5880 5882 5883 5884 5885 5885 5886 5886 5887 5887 5888 5888 5888 5888 5888 5888 5888 5888 5888 5888 5888 5888 5887 5887 5888 5888 5888 5888 5888 5888 5888 5888 5888 5889 5889 5889 5889 5889 5889
5870 5871 5872 5873 5875 5877 5879 5880 5881 5881 5882 5883 5883 5884 5884 5884 5884 5884 5884 5884 5884 5884 5884 5884 5884 5884 5884 5884 5884 5884 5885 5885 5885 5885 5885 5885 5886 5886 5886 5886 5887 5887 5887
5866 5866 5867 5869 5871 5873 5874 5876 5877 5878 5878 5879 5879 5879 5879 5879 5879 5880 5880 5880 5880 5880 5880 5880 5880 5880 5880 5880 5880 5881 5881 5882 5882 5882 5882 5882 5882 5882 5883 5883 5884 5884 5884
5861 5860 5861 5865 5867 5869 5870 5872 5873 5873 5874 5875 5875 5875 5875 5874 5874 5875 5876 5876 5876 5876 5876 5876 5875 5875 5875 5875 5876 5876 5877 5878 5878 5878 5878 5878 5878 5878 5879 5880 5880 5881 5881
5856 5855 5858 5860 5861 5864 5865 5867 5868 5869 5869 5870 5870 5870 5870 5870 5870 5870 5871 5871 5871 5871 5870 5871 5870 5870 5870 5870 5871 5872 5872 5873 5874 5874 5874 5874 5874 5875 5875 5876 5877 5877 5877
5853 5853 5855 5857 5857 5859 5860 5861 5862 5864 5864 5865 5865 5866 5865 5865 5865 5866 5866 5866 5865 5865 5865 5865 5864 5864 5865 5865 5866 5866 5867 5868 5868 5869 5869 5869 5870 5870 5871 5872 5872 5872 5873
5851 5851 5852 5852 5854 5855 5856 5857 5857 5858 5859 5859 5860 5860 5860 5860 5860 5860 5860 5860 5859 5860 5860 5860 5859 5860 5860 5860 5861 5861 5862 5862 5863 5864 5864 5864 5865 5865 5867 5867 5868 5868 5868
5847 5848 5847 5849 5850 5851 5851 5852 5851 5851 5853 5854 5854 5854 5855 5854 5854 5854 5854 5853 5853 5853 5854 5854 5854 5854 5854 5855 5855 5856 5856 5856 5857 5858 5859 5859 5859 5860 5861 5862 5863 5863 5864
5844 5844 5844 5845 5846 5846 5847 5846 5845 5847 5848 5848 5848 5848 5848 5848 5848 5847 5847 5847 5847 5847 5848 5848 5848 5849 5849 5849 5849 5850 5851 5851 5851 5852 5853 5854 5855 5855 5856 5857 5858 5858 5859
5840 5839 5839 5841 5842 5842 5841 5841 5841 5842 5841 5841 5841 5841 5841 5841 5841 5841 5841 5841 5841 5841 5841 5842 5842 5843 5843 5843 5844 5844 5845 5845 5846 5846 5847 5848 5849 5850 5850 5851 5852 5852 5853
5837 5836 5836 5838 5838 5838 5838 5837 5837 5837 5836 5835 5835 5835 5834 5834 5835 5835 5835 5835 5835 5835 5835 5835 5835 5836 5837 5837 5838 5838 5838 5840 5839 5840 5841 5842 5843 5844 5844 5845 5846 5846 5847
5833 5833 5833 5833 5833 5833 5833 5832 5832 5831 5831 5830 5829 5829 5828 5828 5828 5828 5828 5828 5828 5828 5828 5828 5829 5829 5830 5830 5831 5831 5831 5832 5833 5834 5835 5836 5837 5838 5838 5839 5839 5840 5840
5829 5829 5828 5828 5828 5827 5827 5826 5826 5825 5824 5824 5823 5822 5822 5821 5821 5821 5821 5821 5821 5821 5821 5821 5822 5822 5822 5823 5823 5823 5824 5825 5826 5827 5828 5829 5830 5831 5832 5832 5833 5833 5834
5825 5824 5824 5823 5822 5822 5821 5820 5819 5819 5818 5817 5817 5816 5815 5815 5814 5814 5814 5814 5814 5814 5814 5814 5814 5814 5815 5815 5815 5816 5816 5817 5818 5820 5820 5821 5823 5824 5825 5825 5826 5827 5827
5820 5819 5818 5818 5817 5815 5814 5814 5813 5812 5811 5811 5810 5809 5808 5808 5807 5807 5806 5806 5806 5806 5807 5807 5807 5807 5807 5807 5808 5808 5809 5809 5811 5812 5813 5814 5815 5817 5818 5818 5819 5820 5820